OE5RBO Weather Reports


Display with metric or nautical units.
time (UTC)temp
F
wind
direction
speed
MPH
gust
MPH
rain 1hr
in
rain 24hr
in
rain mn
in
humidity
%
barometer
mb
20260904211609 77 141 3.0 6.0 0.00 0.00 0.00 57 1015.9
20260904210608 77 142 3.0 7.0 0.00 0.00 0.00 57 1015.8
20260904204608 77 121 2.0 6.0 0.00 0.00 0.00 57 1015.8
20260904201607 78 134 4.0 7.0 0.00 0.00 0.00 55 1015.8
20260904200606 79 200 2.0 6.0 0.00 0.00 0.00 53 1015.8
20260904194605 79 191 2.0 4.0 0.00 0.00 0.00 51 1015.7
20260904193605 80 188 3.0 5.0 0.00 0.00 0.00 51 1015.7
20260904191604 80 208 4.0 7.0 0.00 0.00 0.00 50 1015.6
20260904185603 80 173 3.0 7.0 0.00 0.00 0.00 50 1015.4
20260904184603 80 187 3.0 7.0 0.00 0.00 0.00 50 1015.3
20260904183603 81 197 3.0 6.0 0.00 0.00 0.00 51 1015.2
20260904181602 81 155 3.0 8.0 0.00 0.00 0.00 51 1014.9
20260904180602 81 167 2.0 5.0 0.00 0.00 0.00 53 1014.8
20260904175601 82 153 2.0 3.0 0.00 0.00 0.00 52 1014.7
20260904174601 84 188 2.0 5.0 0.00 0.00 0.00 50 1014.6
20260904173601 85 186 2.0 4.0 0.00 0.00 0.00 48 1014.4
20260904172600 85 221 3.0 4.0 0.00 0.00 0.00 47 1014.4
20260904171600 86 190 4.0 7.0 0.00 0.00 0.00 46 1014.4
20260904170559 87 186 4.0 6.0 0.00 0.00 0.00 44 1014.5
20260904165559 88 212 3.0 6.0 0.00 0.00 0.00 43 1014.5
20260904164559 88 193 3.0 5.0 0.00 0.00 0.00 42 1014.6
20260904163558 89 211 2.0 5.0 0.00 0.00 0.00 41 1014.6
20260904162558 89 200 3.0 9.0 0.00 0.00 0.00 41 1014.6
20260904161558 88 218 3.0 7.0 0.00 0.00 0.00 42 1014.6
20260904155557 88 210 5.0 13.0 0.00 0.00 0.00 41 1014.8
20260904154557 88 197 5.0 11.0 0.00 0.00 0.00 41 1014.9
20260904153556 88 210 5.0 10.0 0.00 0.00 0.00 40 1015.1
20260904152556 88 197 5.0 11.0 0.00 0.00 0.00 41 1015.2
20260904151555 88 184 6.0 12.0 0.00 0.00 0.00 42 1015.3
20260904150555 87 200 5.0 14.0 0.00 0.00 0.00 42 1015.4
20260904145555 87 212 5.0 10.0 0.00 0.00 0.00 41 1015.4
20260904144554 88 214 5.0 10.0 0.00 0.00 0.00 42 1015.5
20260904143554 88 238 4.0 10.0 0.00 0.00 0.00 41 1015.6
20260904142554 88 203 4.0 9.0 0.00 0.00 0.00 43 1015.8
20260904141554 87 193 4.0 10.0 0.00 0.00 0.00 44 1015.9
20260904140553 86 205 8.0 14.0 0.00 0.00 0.00 44 1016.2
20260904135553 86 193 7.0 14.0 0.00 0.00 0.00 43 1016.4
20260904134552 87 183 5.0 10.0 0.00 0.00 0.00 43 1016.3
20260904133552 85 194 7.0 14.0 0.00 0.00 0.00 45 1016.4
20260904131551 85 203 7.0 13.0 0.00 0.00 0.00 45 1016.8
20260904130551 84 203 7.0 14.0 0.00 0.00 0.00 47 1017.0
20260904123550 84 204 6.0 12.0 0.00 0.00 0.00 48 1017.5
20260904122549 84 198 6.0 13.0 0.00 0.00 0.00 48 1017.7
20260904121549 83 204 7.0 17.0 0.00 0.00 0.00 48 1017.9
20260904120549 83 198 7.0 15.0 0.00 0.00 0.00 49 1018.1
20260904115548 82 203 8.0 14.0 0.00 0.00 0.00 48 1018.2
20260904112547 83 195 5.0 11.0 0.00 0.00 0.00 50 1018.5
20260904111547 81 193 6.0 13.0 0.00 0.00 0.00 52 1018.8
20260904105546 80 204 6.0 14.0 0.00 0.00 0.00 53 1018.9
20260904103545 80 201 6.0 11.0 0.00 0.00 0.00 53 1019.2
20260904102545 81 197 5.0 10.0 0.00 0.00 0.00 54 1019.4
20260904101545 80 210 5.0 12.0 0.00 0.00 0.00 54 1019.7
20260904100544 81 208 3.0 10.0 0.00 0.00 0.00 55 1019.8
20260904095544 80 217 4.0 8.0 0.00 0.00 0.00 55 1019.9
20260904092543 79 288 3.0 9.0 0.00 0.00 0.00 58 1020.2
20260904091543 78 224 2.0 9.0 0.00 0.00 0.00 60 1020.5
20260904090542 78 288 0.0 1.0 0.00 0.00 0.00 59 1020.7
20260904085542 77 288 0.0 8.0 0.00 0.00 0.00 61 1020.7
20260904084541 77 201 3.0 10.0 0.00 0.00 0.00 60 1020.7
20260904083541 76 203 7.0 15.0 0.00 0.00 0.00 62 1020.8
20260904082540 77 207 1.0 10.0 0.00 0.00 0.00 60 1020.8
20260904081540 75 288 3.0 11.0 0.00 0.00 0.00 62 1020.8
20260904080540 75 200 3.0 10.0 0.00 0.00 0.00 62 1020.8
20260904075539 75 204 2.0 10.0 0.00 0.00 0.00 62 1020.9
20260904073539 75 217 4.0 13.0 0.00 0.00 0.00 62 1020.7
20260904072538 75 203 4.0 12.0 0.00 0.00 0.00 62 1020.8
20260904070538 76 288 1.0 9.0 0.00 0.00 0.00 62 1021.0
20260904065537 75 200 2.0 7.0 0.00 0.00 0.00 62 1021.0
20260904064537 74 200 2.0 6.0 0.00 0.00 0.00 64 1021.1
20260904063536 74 194 2.0 10.0 0.00 0.00 0.00 67 1021.0
20260904062536 73 288 2.0 8.0 0.00 0.00 0.00 66 1021.3
20260904061536 72 212 1.0 4.0 0.00 0.00 0.00 69 1021.3
20260904060535 71 160 1.0 3.0 0.00 0.00 0.00 71 1021.6
20260904055535 71 165 1.0 2.0 0.00 0.00 0.00 72 1021.3
20260904054535 70 193 0.0 3.0 0.00 0.00 0.00 72 1021.1
20260904052534 69 156 2.0 5.0 0.00 0.00 0.00 73 1021.0
20260904051534 69 135 1.0 3.0 0.00 0.00 0.00 74 1021.0
20260904050533 69 163 2.0 4.0 0.00 0.00 0.00 73 1021.0
20260904044532 69 141 2.0 6.0 0.00 0.00 0.00 73 1020.9
20260904043532 69 186 1.0 3.0 0.00 0.00 0.00 73 1021.0
20260904042532 69 155 2.0 4.0 0.00 0.00 0.00 73 1021.0
20260904041531 69 141 2.0 5.0 0.00 0.00 0.00 74 1021.2
20260904035531 69 146 1.0 3.0 0.00 0.00 0.00 73 1021.2
20260904034530 69 155 1.0 3.0 0.00 0.00 0.00 74 1021.3
20260904033530 69 146 1.0 4.0 0.00 0.00 0.00 73 1021.2
20260904032530 70 146 1.0 2.0 0.00 0.00 0.00 73 1021.2
20260904031529 70 173 1.0 2.0 0.00 0.00 0.00 73 1021.1
20260904030529 70 155 2.0 4.0 0.00 0.00 0.00 72 1021.1
20260904025528 70 153 1.0 4.0 0.00 0.00 0.00 73 1021.3
20260904024528 70 179 1.0 5.0 0.00 0.00 0.00 74 1021.4
20260904022528 70 186 3.0 6.0 0.00 0.00 0.00 73 1021.6
20260904021527 70 193 2.0 9.0 0.00 0.00 0.00 73 1021.3
20260904020527 70 177 3.0 6.0 0.00 0.00 0.00 73 1021.2
20260904014526 70 210 3.0 6.0 0.00 0.00 0.00 74 1021.4
20260904013526 69 205 3.0 6.0 0.00 0.00 0.00 75 1021.4
20260904011525 69 159 1.0 4.0 0.00 0.00 0.00 76 1021.7
20260904005524 69 191 2.0 5.0 0.00 0.00 0.00 76 1022.0
20260904004524 69 208 2.0 9.0 0.00 0.00 0.00 76 1021.9
20260904003523 69 177 2.0 4.0 0.00 0.00 0.00 76 1021.9
20260904002523 69 174 1.0 3.0 0.00 0.00 0.00 77 1022.0
20260904001523 69 156 2.0 5.0 0.00 0.00 0.00 77 1022.0
20260903234521 69 207 2.0 5.0 0.00 0.00 0.00 79 1022.3
20260903233521 69 143 3.0 7.0 0.00 0.00 0.00 79 1022.1
20260903232521 68 187 3.0 8.0 0.00 0.00 0.00 80 1022.2
20260903231520 67 181 2.0 9.0 0.00 0.00 0.00 83 1022.4
20260903230520 66 120 1.0 5.0 0.00 0.00 0.00 85 1022.6
20260903225520 66 172 0.0 2.0 0.00 0.00 0.00 88 1022.5
20260903224519 66 0 0.0 0.0 0.00 0.00 0.00 88 1022.4
20260903223519 66 0 0.0 0.0 0.00 0.00 0.00 88 1022.6
20260903221518 67 0 0.0 0.0 0.00 0.00 0.00 85 1022.5
20260903215517 67 65 0.0 2.0 0.00 0.00 0.00 84 1022.5
20260903214517 67 200 1.0 3.0 0.00 0.00 0.00 87 1022.4
20260903213517 67 288 1.0 4.0 0.00 0.00 0.00 81 1022.5
20260903212516 67 45 2.0 4.0 0.00 0.00 0.00 82 1022.5